{"data":{"norad_id":66693,"intl_designator":"2025-276AD","name":"AE5RB","alt_names":[],"object_type":"PAYLOAD","status":"ACTIVE","operator":null,"country":"JPN","launch_date":"2025-11-28","launch_site_code":"AFWTR","launch_vehicle":null,"mission":null,"orbit_class":"UNKNOWN","rcs_meters":null,"size_class":null,"mass_kg":null,"dimensions":null,"purposes":[],"wikipedia_slug":null,"has_3d_model":false,"image_url":null,"decayed_at":null,"tle_current":{"epoch":"2026-09-20T22:49:09.113952Z","epoch_age_seconds":81981,"freshness":"FRESH","line1":"1 66693U 25276AD  26263.95079993  .00008104  00000+0  32831-3 0  9994","line2":"2 66693  97.4090 336.7527 0004370  50.0606 310.1015 15.24914450 45033","mean_motion":15.2491445,"eccentricity":0.000437,"inclination_deg":97.409,"raan_deg":336.7527,"arg_perigee_deg":50.0606,"mean_anomaly_deg":310.1015,"bstar":0.00032831,"rev_number":4503,"period_min":94.431526962054,"perigee_km":488.04050459104,"apogee_km":494.04416733067,"semimajor_km":6869.1793359609,"source":"CELESTRAK","updated_at":"2026-09-21T09:00:16.127229Z"}}}